MOLNIYA 3-42

Last updated on Mon Jun 26 2023 00:03:02 GMT+0000 (Coordinated Universal Time)

1 22178U 92067A 23176.23944306 .00000221 00000+0 00000+0 0 9997 2 22178 64.6797 176.9527 6446522 260.8322 26.2330 2.20435579232730
UTC large
Height (km)
Speed (km/s)
/
Latitude / Longitude
Inclination (degrees)
Orbital Period (minutes)
Azimuth
Elevation
Range (km)
Doppler Factor

Next 0 passes for location: London (51.5072 / 0.1276)

Sorry there are no passes over London.